Regional Weather Roundup
Issued by NWS

Home | Current Version | Previous Version | Graphics & Text | Print | Product List | Glossary On
Versions: 1 2 3 4 5 6 7 8 9 10 11 12 13 14 15 16 17 18 19 20 21 22 23 24 25 26 27 28 29 30 31 32 33 34 35 36 37 38 39 40 41 42 43 44 45 46 47 48 49 50
000
ASUS45 KTFX 160219
RWRMT
MONTANA HOURLY WEATHER ROUNDUP
NATIONAL WEATHER SERVICE GREAT FALLS MT
819 PM MDT TUE APR 15 2014

NOTE: "FAIR" INDICATES FEW OR NO CLOUDS BELOW 12000 FEET WITH NO
SIGNIFICANT WEATHER AND/OR OBSTRUCTIONS TO VISIBILITY.

* THESE STATIONS ARE NOT UNDER NWS QUALITY CONTROL. THEY DO NOT
   REPORT WEATHER SUCH AS PRECIPITATION OR FOG.

MTZ001>007-043-160300-
WEST OF THE DIVIDE
CITY           SKY/WX    TMP DP  RH WIND       PRES   REMARKS
KALISPELL      MOCLDY    39  36  89 S6        29.85R WCI  35
MISSOULA       CLOUDY    46  27  48 W15G26    29.92R
BUTTE          PTCLDY    36  19  50 NW22G31   29.85R WCI  25
MULLAN PASS    SNOW      28  27  96 VRB5      29.89R VSB M1/4 WCI  22
* ESSEX        N/A       37  35  92 SE1        N/A
* LINCOLN      N/A       39  30  70 SW6G17     N/A   WCI  35
* LOOKOUT PASS N/A       33  31  92 N4         N/A
* POLSON       N/A       43  29  58 SW3G9      N/A
* RONAN APT    MOCLDY    41  36  82 E8         N/A
* SEELEY LAKE  N/A       34  32  92 SW1G12     N/A
* THOMP F APT  PTCLDY    40  10  29 N11G37     N/A   WCI  33
$$

MTZ008-052>055-160300-
SOUTHWEST MONTANA
CITY           SKY/WX    TMP DP  RH WIND       PRES   REMARKS
BOZEMAN        CLOUDY    39  28  65 NW17G37   29.81R WCI  30
DILLON         PTCLDY    37  18  46 NW17G30   29.85R WCI  27
W YELLOWSTONE  N/A       33  28  82 W4G11      N/A
* THREE FORKS  MOCLDY    46  27  48 W17G24     N/A
* BOULDER HILL N/A       37  17  44 VRB4G13    N/A
* MONIDA PASS  N/A       33  18  54 N26G37     N/A   WCI  20
* RAYNOLDS PAS N/A       32 -17  11 N12        N/A   WCI  23
* WHITEHALL    N/A       48  17  29 NW16G30    N/A
* WISE RIVER   N/A       34  18  52 NW19G30    N/A   WCI  23
$$

MTZ009>010-012-014-046-048-049-054-160300-
EAST SLOPES AND CENTRAL MONTANA
CITY           SKY/WX    TMP DP  RH WIND       PRES   REMARKS
CUT BANK       CLOUDY    39  34  82 NW17      29.80R WCI  30
GREAT FALLS    CLOUDY    41  32  70 NW16G22   29.78R
HELENA         CLOUDY    45  25  45 W23G30    29.81S
MALMSTROM AFB  CLOUDY    43  34  71 W10       29.76R
* CONRAD       CLOUDY    37  36  96 W8         N/A   WCI  31
* DEARBORN     N/A       44  33  65 SW3        N/A
* EAST GLACIER N/A       35  30  82 E6         N/A   WCI  30
* MONARCH      N/A       31  28  89 NW16G22    N/A   WCI  20
* PENDROY      N/A       38  32  79 NW7G14     N/A   WCI  33
* ROGERS PASS  N/A       34  27  76 SE7G20     N/A   WCI  28
* SAINT MARY   N/A       34  32  92 N5         N/A   WCI  29
* SWEET GRASS  N/A       37  36  96 N21G26     N/A   WCI  26
* WHITE SULPH  N/A       34  30  85 N11G25     N/A   WCI  26
$$

MTZ011-013-016-021-035-040-045-047-050-051-160300-
NORTH CENTRAL MONTANA
CITY           SKY/WX    TMP DP  RH WIND       PRES   REMARKS
HAVRE          CLOUDY    48  21  34 N14       29.70R
LEWISTOWN      CLOUDY    39  32  76 W17       29.72R WCI  30
* FORT BENTON  CLOUDY    46  32  58 W22       29.75R
* MALTA APT    CLOUDY    52  19  27 NW15G20   29.63R
* CHESTER      N/A       49  19  30 N12G21     N/A
* DENTON       N/A       42  30  63 W23        N/A
* GEYSER       N/A       36  34  92 W16G23     N/A   WCI  26
* JUDITH GAP   N/A       37  33  85 NW20G26    N/A   WCI  27
* LOMA         N/A       51  19  28 NW9G15     N/A
$$

MTZ017>020-022>027-061-062-160300-
NORTHEAST MONTANA
CITY           SKY/WX    TMP DP  RH WIND       PRES   REMARKS
GLASGOW        CLOUDY    46  21  37 NE10      29.60R
GLENDIVE       CLOUDY    52  25  35 W8        29.57R
JORDAN         CLOUDY    52  23  32 W10       29.58R
SIDNEY         CLOUDY    45  21  38 NE9       29.63R
WOLF POINT     CLOUDY    46  21  37 NE15      29.60R
* BEAVER HILL  N/A       54  20  26 W9         N/A
* CIRCLE       N/A       47  23  39 NE15       N/A
* LINDSAY DVD  N/A       50  22  33 NW4G9      N/A
* NAVAJO       N/A       38  19  46 E10        N/A   WCI  31
* SACO         N/A       49  19  30 NW6        N/A
$$

MTZ028>042-056>058-160300-
SOUTHCENTRAL AND SOUTHEAST MONTANA
CITY           SKY/WX    TMP DP  RH WIND       PRES   REMARKS
BAKER          CLOUDY    52  25  35 N7        29.58R
BILLINGS       CLOUDY    43  34  71 NW23G32   29.70R
LIVINGSTON     CLOUDY    37 N/A N/A SW18      29.78R WCI  27
MILES CITY     CLOUDY    54  28  37 W16G31    29.59R
* LAUREL APT   CLOUDY    43  32  65 W13        N/A
* ROUNDUP APT  CLOUDY    45  30  56 W20G29     N/A
* HYSHAM       N/A       41  38  89 W3         N/A
* REED POINT   N/A       45  31  58 W14G24     N/A
* ROSCOE HILL  N/A       38  19  46 W11G22     N/A   WCI  31
$$

REGIONAL REPORTS...DAKOTAS
CITY           SKY/WX    TMP DP  RH WIND       PRES   REMARKS
WILLISTON      CLOUDY    39  25  57 SE25      29.66R WCI  28
DICKINSON      CLOUDY    43  23  45 SE20      29.57F
CROSBY         MOCLDY    32  25  75 E23G29    29.75R WCI  19
TIOGA          CLOUDY    32  18  56 E22G30    29.73R WCI  19
WATFORD CITY   CLEAR     37  19  48 E23G29    29.62R WCI  26
BISMARCK       CLOUDY    34  18  52 E21G29    29.74R WCI  22
GRAND FORKS    CLOUDY    30  12  47 E6        29.98R WCI  24
FARGO          CLOUDY    34  10  37 SE13      29.97F WCI  25
BUFFALO SD     CLOUDY    54  25  33 N24G30    29.50R
RAPID CITY     CLOUDY    55  28  35 N8        29.52F
$$

REGIONAL REPORTS...WYOMING/IDAHO/WASHINGTON
CITY           SKY/WX    TMP DP  RH WIND       PRES   REMARKS
GILLETTE       LGT RAIN  45  36  71 NW8G23    29.60R
SHERIDAN       LGT RAIN  37  34  89 NW22G32   29.69R WCI  26
CODY           CLOUDY    37  32  82 N6        29.72R WCI  32
YELLOWSTONE LA MOCLDY    27  23  85 VRB7      29.81R WCI  19
SALMON         MOCLDY    43  21  42 NE8       29.94R
MULLAN PASS    SNOW      28  27  96 VRB5      29.89S VSB M1/4 WCI  22
SAND POINT     PTCLDY    52  28  40 CALM      29.88R
SPOKANE        MOCLDY    54  18  24 NW10      29.90S
$$

REGIONAL REPORTS...ALBERTA
CITY           SKY/WX    TMP DP  RH WIND       PRES   REMARKS
CALGARY        LGT RAIN  36  30  79 N16G23    29.85R WCI  26
LETHBRIDGE     LGT RAIN  39  36  89 N9        29.82R WCI  33
MEDICINE HAT   CLOUDY    45  21  38 NE15      29.79R
EDMONTON       LGT SNOW  30  28  92 N13G20    29.94R VSB 1 1/4 WCI  20
WATERTON GATE  N/A       34  32  92 N9G53      N/A   WCI  27
CARDSTON       N/A       36  36 100 NW8        N/A   WCI  30
MILK RIVER     N/A       36  34  92 N13        N/A   WCI  27
$$

REGIONAL REPORTS...SASKATCHEWAN
CITY           SKY/WX    TMP DP  RH WIND       PRES   REMARKS
SWIFT CURRENT  CLEAR     34  23  64 NE15G22   29.74R WCI  24
REGINA         LGT SNOW  27  23  85 E20G28    29.83R VSB 3    WCI  13
VAL MARIE      N/A       41  21  45 NE14G20    N/A
ASSINIBOIA     N/A       34  21  59 E12        N/A   WCI  25

$$




USA.gov is the U.S. government's official web portal to all federal, state and local government web resources and services.